Wind_Speed
52 54 56 58 59 61 61 62 61 60 61 62 63 64 64 64 64 64 66 68 70 72 73 73 73 74 74 73 72 72 72 72 72 72 72 72 73 74 76 80 83 87 90 93 96 97 96 95 94 93 93 93 93 94 95 96 97 97 98 99 100 103 106 113 121 124 121 109 93 82 77 75 75 74 72 73 72 69 69 73 80 91 100 105 106
54 56 58 60 61 62 62 62 62 62 62 64 65 65 65 65 65 66 67 69 71 72 73 73 74 74 73 72 72 72 72 72 72 72 73 73 73 75 78 81 85 89 92 95 96 96 95 94 93 93 93 94 94 95 96 96 97 99 99 100 102 105 109 117 123 122 112 94 74 66 68 71 72 72 72 72 71 69 68 70 75 85 96 102 104
55 57 60 61 62 63 63 63 63 63 64 65 66 66 66 66 66 67 68 70 71 72 72 73 74 73 73 72 72 73 73 73 73 74 74 74 74 76 79 83 87 91 94 95 96 95 94 93 93 93 94 94 94 95 96 96 97 99 100 102 105 108 113 118 117 108 95 78 62 60 66 70 71 71 69 68 69 69 67 65 69 79 90 97 101
57 58 61 63 63 63 64 64 64 65 66 67 67 67 67 67 67 68 69 70 70 71 72 73 74 74 74 73 73 73 74 74 74 75 75 75 75 77 80 83 88 92 95 96 95 95 94 94 94 94 94 94 94 95 95 96 97 99 102 105 108 113 116 113 102 90 79 67 57 59 66 69 68 67 64 62 64 66 63 60 64 74 84 92 97
58 59 62 64 64 64 65 65 65 66 67 68 68 67 67 67 68 69 69 70 70 72 73 75 75 75 74 74 74 74 74 74 75 76 76 75 76 78 80 84 88 92 95 95 95 94 94 94 94 94 94 94 94 94 95 96 96 99 104 107 112 115 111 99 84 75 69 63 57 59 64 65 63 60 57 56 58 60 59 58 61 69 78 86 93
60 61 63 65 65 66 66 66 67 68 68 68 68 68 68 68 69 70 70 71 71 73 74 75 75 74 74 75 74 73 73 74 75 76 76 76 77 78 80 84 88 92 94 95 95 94 94 94 93 94 94 93 94 94 95 95 97 100 106 110 113 110 98 82 71 66 63 60 57 58 60 60 58 54 51 53 55 55 55 55 58 65 73 81 88
62 63 64 65 67 68 68 68 68 69 69 68 68 68 68 69 70 70 71 72 72 73 74 75 75 74 74 73 72 71 73 74 75 75 75 76 76 77 80 84 88 91 92 93 94 94 94 93 93 93 93 93 94 94 95 96 99 103 108 112 109 98 81 68 62 61 60 57 57 57 56 54 52 48 45 49 52 51 51 50 53 61 68 76 84
64 64 65 66 67 68 69 69 69 69 69 69 69 69 69 69 70 70 71 72 73 74 74 74 74 72 71 70 71 72 73 74 74 74 75 75 75 76 80 85 87 89 90 92 94 94 93 93 93 92 92 93 93 94 96 98 101 106 109 108 99 83 67 59 57 57 57 55 56 56 53 48 46 44 41 44 48 47 46 46 49 57 64 71 79
65 65 66 67 67 68 68 69 69 69 69 70 70 69 69 69 70 71 72 73 74 74 73 72 71 69 69 70 71 72 72 73 73 74 74 74 75 77 81 84 86 88 90 92 93 93 93 93 92 91 91 92 94 96 98 100 104 109 106 98 86 70 58 55 54 53 53 53 54 55 52 45 42 42 39 39 42 42 42 45 49 55 60 67 74
66 67 68 68 67 67 68 68 69 70 70 70 69 69 70 70 71 72 73 73 73 72 70 69 69 69 70 70 70 71 72 72 73 74 74 74 76 79 81 83 85 88 90 91 92 92 92 92 91 90 90 91 94 98 101 103 107 107 97 85 74 61 53 52 52 51 50 50 51 54 52 44 39 40 38 36 38 39 41 44 49 54 58 64 71
68 69 69 67 67 67 68 69 70 70 70 69 69 70 71 72 73 74 73 71 69 69 68 68 68 69 69 69 70 71 72 72 73 73 73 75 77 79 80 83 85 88 90 91 92 92 91 91 90 89 89 91 95 100 103 106 107 99 84 73 65 57 51 51 51 50 50 49 49 51 51 45 39 38 37 34 34 37 40 43 49 55 60 65 70
69 69 67 66 67 67 68 68 68 68 68 68 70 71 72 74 75 73 70 67 66 67 68 67 68 69 69 69 70 70 72 72 72 72 73 76 78 79 80 83 85 87 89 91 92 91 91 90 89 88 89 92 97 101 105 107 102 88 73 63 59 56 53 52 51 50 51 50 48 47 48 46 40 37 36 34 33 37 40 44 50 57 62 66 70
67 67 66 65 65 65 64 64 65 66 67 69 71 73 74 74 72 68 65 65 66 66 66 67 68 69 69 69 70 71 71 71 70 72 74 76 77 79 81 83 85 87 89 90 91 90 90 90 88 88 89 93 98 103 107 106 93 76 63 58 55 54 53 53 53 52 52 51 48 45 46 46 40 35 36 36 35 37 41 45 49 55 60 64 67
65 64 63 62 60 60 60 61 63 66 69 71 73 75 74 70 66 64 63 64 65 65 66 68 69 69 69 69 70 71 71 70 70 72 74 75 77 79 81 83 85 86 87 89 89 89 89 89 88 88 90 94 99 105 108 101 83 65 57 54 52 52 52 53 54 54 54 52 49 46 46 46 41 35 36 38 37 38 43 46 49 52 56 58 59
59 58 57 56 55 55 56 59 64 68 72 75 75 72 68 64 62 62 62 63 64 66 67 68 69 70 70 69 70 70 69 69 70 73 74 76 77 79 81 83 84 84 85 87 88 89 89 89 89 89 91 95 100 104 104 93 72 58 54 52 50 50 51 52 54 54 55 54 52 50 48 47 44 38 36 39 39 39 43 48 49 50 50 50 52
57 56 56 56 56 56 57 60 64 69 72 72 69 66 63 62 61 61 62 64 66 67 67 68 69 69 69 69 69 68 68 69 71 73 74 76 78 79 81 82 82 83 84 85 87 87 88 89 90 91 92 96 100 102 98 83 64 54 53 51 50 49 49 51 53 54 54 54 53 53 52 50 46 41 37 39 41 40 44 48 48 45 44 45 47
62 63 63 62 61 60 60 60 62 68 71 69 66 64 63 63 62 62 64 66 66 67 67 68 68 69 69 69 67 66 67 70 72 73 75 77 78 79 80 81 81 82 82 84 85 86 87 89 91 92 93 96 100 99 89 73 59 53 52 51 50 49 48 51 53 53 55 56 55 55 54 52 49 45 40 40 42 42 45 49 48 44 43 43 44
65 64 63 61 60 60 60 61 65 70 72 69 66 66 66 67 67 66 66 67 67 67 67 67 68 68 68 67 65 65 68 70 72 74 75 77 78 79 80 80 80 81 82 83 85 86 87 89 92 94 96 98 98 93 80 66 57 54 53 51 50 50 50 53 54 55 57 58 58 56 55 54 52 48 44 42 43 44 47 48 48 47 46 43 42
63 61 59 57 57 60 63 67 72 74 74 72 71 71 71 71 70 68 69 69 68 66 66 66 66 66 66 65 64 66 68 70 72 74 75 76 77 78 79 80 80 80 81 82 84 85 87 89 92 95 97 97 94 84 72 64 59 56 53 52 50 51 53 56 57 57 58 58 57 56 54 53 53 51 47 45 44 45 47 46 48 51 48 44 44
59 58 57 56 58 62 67 71 71 71 70 69 69 68 68 68 68 70 71 70 66 65 64 64 64 64 64 64 64 66 68 70 72 73 75 76 76 77 79 80 80 79 80 81 83 85 86 89 93 95 96 96 90 77 66 62 61 57 54 52 51 53 56 57 57 57 56 53 52 52 50 49 52 52 50 47 45 46 47 46 48 51 49 45 44
58 57 56 57 58 62 65 65 61 57 57 58 60 61 63 66 69 70 70 68 65 64 63 63 63 63 63 63 65 67 68 69 71 73 74 75 75 76 78 79 80 80 79 81 83 85 86 89 93 94 95 93 85 71 62 61 60 56 53 53 53 55 56 55 52 51 49 45 43 43 43 44 50 53 52 49 46 46 47 46 48 51 49 45 43
58 57 57 58 59 60 59 58 55 53 55 57 60 63 66 68 69 69 68 67 65 63 62 62 62 62 62 63 65 66 67 69 71 72 73 73 73 75 78 79 80 80 80 82 83 84 87 90 92 93 92 89 80 67 59 58 56 53 52 53 55 55 53 49 44 40 38 37 36 36 36 39 46 52 54 52 48 46 47 47 49 51 49 45 43
58 58 58 59 57 55 54 55 56 57 60 62 64 66 68 69 68 67 66 65 64 64 63 62 61 60 61 63 65 66 67 69 70 72 72 71 71 74 77 79 79 80 81 82 83 84 87 90 92 91 88 84 76 64 57 55 52 50 51 53 53 51 47 41 36 32 32 33 34 33 32 35 43 51 54 54 51 48 47 48 51 53 50 48 48
59 60 61 61 58 55 55 55 57 59 61 63 65 66 67 67 67 66 66 66 66 65 64 61 60 59 60 62 64 65 67 68 70 71 71 70 70 73 76 77 78 79 81 82 83 84 87 89 90 87 81 76 71 63 56 53 50 49 50 51 49 45 40 36 33 31 32 33 34 33 31 32 39 49 54 56 53 50 48 48 51 54 53 53 54
63 63 62 62 61 59 58 58 59 60 61 62 64 66 67 68 69 69 68 68 67 65 62 60 59 59 60 62 63 65 66 68 69 70 69 68 69 72 74 76 77 79 80 81 82 84 87 89 88 82 72 66 65 62 56 51 50 49 49 47 44 40 36 34 32 32 32 32 33 34 33 33 37 46 55 57 55 52 50 48 51 56 56 55 56
63 65 65 64 63 62 61 62 62 61 62 63 65 67 69 70 70 70 69 68 66 64 61 60 59 60 60 61 62 64 66 67 68 68 68 67 69 71 73 74 75 77 79 80 81 84 86 87 85 78 65 59 60 61 56 51 49 48 46 43 40 37 35 33 31 31 30 30 31 33 35 36 38 45 54 58 56 54 51 50 53 57 57 55 58
63 65 66 67 66 65 63 62 62 62 63 65 67 68 69 69 69 68 68 67 65 63 61 60 60 60 60 61 62 64 65 67 67 67 67 67 69 71 72 73 74 76 78 79 80 84 85 85 83 73 60 53 55 58 57 53 49 46 44 40 37 35 33 31 30 28 27 28 29 31 34 37 40 44 52 57 57 55 52 52 54 58 58 57 62
67 67 68 69 68 67 66 64 63 63 64 65 67 68 68 68 68 68 68 67 66 63 61 60 60 60 60 60 62 63 64 65 65 65 66 68 70 71 72 73 74 76 77 79 80 83 84 83 79 68 55 48 50 52 52 50 47 45 42 38 35 34 31 29 27 25 25 25 26 28 31 36 40 44 49 55 57 56 53 52 55 59 59 59 69
69 69 70 70 70 69 68 66 65 65 66 67 67 66 66 66 67 68 68 68 65 62 61 60 60 59 59 60 61 62 62 63 63 65 67 69 70 71 72 74 75 76 78 79 81 83 83 80 73 62 51 45 45 45 45 44 43 42 41 36 33 32 29 26 24 24 23 23 23 24 28 33 39 42 47 52 56 57 55 53 56 59 59 62 77
69 71 71 70 70 70 69 68 68 68 67 66 66 65 66 67 68 68 68 67 64 61 60 59 58 58 58 59 60 60 61 62 63 65 68 69 70 71 73 74 76 77 78 79 81 82 81 76 68 57 47 43 42 41 40 39 38 39 39 36 33 30 27 25 23 23 23 24 23 22 24 29 37 41 45 51 56 58 56 55 57 59 59 66 83
69 71 69 67 69 72 71 69 69 67 65 65 65 66 67 68 68 69 67 65 61 59 58 57 57 57 57 58 58 59 60 61 63 65 67 68 69 71 73 75 76 78 79 80 81 81 79 73 64 53 44 42 42 40 37 36 35 35 35 34 32 29 25 24 23 22 23 23 23 22 21 25 34 40 43 50 57 59 58 57 58 60 61 70 87
71 71 69 65 67 70 69 67 65 64 65 66 66 68 70 70 69 67 64 61 58 56 56 56 56 56 57 57 57 58 58 60 62 64 66 67 68 71 74 75 76 78 79 81 81 80 77 70 60 49 43 42 42 40 36 34 34 33 32 30 30 28 25 24 23 22 22 22 22 23 21 22 29 37 43 50 57 59 59 59 59 60 63 74 90
77 76 73 68 67 70 71 71 69 69 69 69 69 72 73 70 66 63 60 57 55 54 55 55 55 55 55 55 55 56 57 59 61 62 64 66 69 71 74 75 77 78 79 80 80 78 73 65 55 46 43 43 42 39 36 34 32 31 30 28 27 27 25 24 23 22 22 21 21 22 22 21 25 34 42 49 57 60 60 60 60 62 67 78 91
83 81 78 75 74 75 77 78 77 74 72 72 73 74 71 66 62 60 56 54 53 53 54 54 54 54 53 53 53 54 56 58 60 61 63 66 69 71 73 75 77 79 80 80 78 74 67 59 49 44 43 43 41 38 35 33 32 30 28 27 26 25 25 24 24 24 23 23 22 22 23 22 23 31 41 49 56 60 61 61 62 64 70 80 90
89 86 82 79 78 78 79 79 76 72 71 72 75 73 67 62 59 56 52 50 51 52 52 52 52 52 51 52 53 55 56 57 58 60 63 66 69 71 73 74 76 79 80 78 74 69 62 53 45 42 42 42 41 37 32 31 31 29 27 26 25 25 25 25 25 26 25 25 24 23 24 23 22 27 39 49 56 60 60 61 63 65 71 82 90
90 87 84 80 78 77 76 75 71 69 71 74 74 69 63 58 55 51 49 49 50 51 50 50 50 50 51 51 53 54 55 56 57 60 63 66 69 71 72 74 76 78 79 75 70 64 57 49 42 40 40 41 41 37 31 29 29 28 27 26 24 24 25 25 26 27 26 26 25 23 23 23 22 24 35 47 56 60 60 62 64 66 71 82 90
91 88 85 80 75 73 72 72 71 72 74 74 71 65 58 53 50 47 47 49 49 49 49 49 48 49 49 50 51 52 53 54 57 60 63 66 69 72 73 74 76 78 77 73 65 58 52 45 40 38 38 39 40 37 31 28 27 27 26 26 24 23 24 25 25 25 25 26 24 21 22 24 23 23 30 43 53 59 60 62 65 67 72 81 90
90 86 82 78 75 75 76 77 77 77 75 73 67 60 53 48 46 46 47 47 47 47 47 47 47 47 47 48 49 50 51 54 57 60 63 66 69 71 73 75 76 77 75 69 61 53 47 42 38 36 35 36 37 36 32 27 26 26 25 25 24 23 23 22 23 23 23 23 21 18 18 23 24 23 26 37 48 55 59 62 65 68 72 80 89
85 81 77 75 75 76 77 78 77 75 72 67 60 52 47 45 44 45 45 45 45 45 45 45 45 46 46 47 48 49 51 54 57 60 63 66 68 71 73 75 76 76 72 65 56 48 43 39 36 34 33 34 35 34 31 27 25 25 24 24 23 23 22 20 20 21 21 20 17 14 14 19 24 24 26 32 41 50 57 61 65 69 73 80 88
72 70 68 68 69 69 70 71 71 69 65 59 52 47 44 43 43 42 42 42 42 42 43 43 44 45 45 46 46 48 51 54 57 60 63 66 69 72 74 75 75 74 69 60 50 43 39 37 35 33 32 32 32 31 30 27 25 24 23 23 22 21 20 19 18 19 19 17 15 12 11 15 21 25 28 31 36 45 54 60 66 71 75 82 90
61 62 60 60 62 64 65 66 66 64 59 53 48 43 41 40 40 40 39 40 40 41 41 42 43 43 43 44 46 49 51 54 57 60 63 66 70 72 75 75 75 71 64 55 45 39 36 36 34 31 30 30 30 29 27 26 25 24 23 22 21 20 18 17 17 18 19 17 16 15 14 14 18 23 28 32 35 41 51 59 67 73 77 86 91
58 57 55 54 57 60 62 61 60 58 54 49 44 40 38 37 37 37 37 38 39 40 40 41 42 42 42 44 46 49 52 54 57 60 64 67 71 74 76 76 73 67 59 49 40 35 34 34 33 30 29 28 28 26 24 22 23 23 22 21 20 19 17 15 16 18 19 20 19 18 18 17 19 23 28 31 35 40 49 58 67 74 80 87 91
55 54 53 54 56 57 58 57 56 53 49 45 41 37 35 34 33 34 35 37 38 39 40 40 40 41 42 44 47 49 52 55 58 61 64 68 71 74 76 75 70 62 53 43 36 33 33 33 31 30 29 28 27 26 22 19 19 21 21 21 20 19 16 14 14 17 20 22 22 20 19 20 21 24 27 30 34 41 48 57 68 76 81 88 90
56 57 57 57 56 55 54 53 52 49 45 42 37 33 31 31 32 33 34 36 37 38 38 39 39 41 43 45 47 50 52 55 58 61 65 68 72 75 75 71 64 56 48 39 34 33 33 32 31 30 29 28 27 26 23 19 17 17 18 19 19 18 16 14 13 15 20 23 24 22 21 21 22 24 27 29 33 40 48 57 67 76 83 88 89
55 56 56 55 53 52 51 49 47 44 41 37 32 29 28 29 31 32 34 35 36 36 37 38 39 41 43 45 48 50 53 56 59 62 65 69 72 74 72 66 58 50 42 36 33 33 32 31 29 28 27 26 26 26 24 21 19 17 17 17 18 17 15 14 12 13 18 23 24 23 22 23 23 25 27 28 31 39 48 57 67 76 82 86 85
50 50 50 51 50 48 46 44 42 39 36 31 28 27 28 29 30 32 33 34 35 35 37 38 40 41 43 46 48 51 53 57 59 62 66 69 72 72 68 59 52 46 39 33 31 31 31 30 28 27 26 24 24 24 24 22 20 18 16 15 16 16 15 13 12 12 16 22 25 25 23 23 24 26 28 28 30 37 46 56 66 74 78 82 84
47 47 47 47 45 43 41 39 37 34 30 27 26 26 27 28 30 31 32 33 34 35 36 38 40 42 44 46 48 51 54 57 60 63 66 69 70 68 61 53 47 43 37 32 30 30 30 30 28 26 25 23 22 23 23 21 19 18 16 14 14 15 14 13 13 12 14 21 26 26 24 23 24 27 30 31 31 36 45 55 65 71 75 80 83
44 44 43 42 40 39 37 34 31 29 27 25 25 26 27 28 29 30 31 32 34 35 36 38 40 42 44 46 49 52 55 57 60 63 66 68 67 63 55 47 43 40 36 32 30 29 29 29 28 26 24 22 22 21 21 20 18 17 16 14 13 13 13 13 13 11 13 21 27 27 24 23 24 27 31 33 33 35 43 54 63 69 74 81 83
40 40 39 38 36 35 32 29 27 26 25 24 25 26 27 28 29 29 31 32 33 35 37 39 40 42 44 46 49 52 55 58 60 63 65 65 63 56 49 44 40 38 35 32 30 29 28 27 26 25 23 22 21 20 19 18 17 16 15 13 12 12 13 13 13 12 12 20 28 28 25 24 24 26 31 35 35 36 42 52 61 67 73 82 86
37 36 35 34 32 29 27 26 25 24 23 24 25 26 26 27 28 29 31 32 34 35 37 38 39 41 44 47 50 53 55 58 60 62 62 61 57 51 45 41 38 36 34 31 29 28 28 26 25 24 23 22 21 20 19 18 16 15 15 13 12 12 12 12 12 12 11 18 28 30 27 25 25 26 30 34 37 37 41 50 58 64 72 82 88
33 32 30 29 27 26 25 24 23 23 24 24 25 25 26 27 29 30 31 32 34 35 36 38 40 42 45 48 51 53 55 57 59 60 59 56 51 46 42 39 37 35 33 31 29 28 27 26 24 23 22 21 21 21 19 18 16 15 14 13 12 12 12 11 12 13 12 16 27 31 29 27 26 27 29 32 36 39 41 48 56 64 71 80 86
Wind_Direction
291 291 291 291 291 291 291 290 289 288 287 286 286 286 286 287 287 288 289 289 289 288 286 284 283 283 284 286 287 289 290 292 293 294 295 296 298 300 303 304 305 305 305 305 306 306 307 308 308 307 306 305 305 304 303 302 300 299 298 298 299 299 300 300 300 300 300 299 296 291 284 280 278 277 277 276 274 271 265 256 244 235 232 231 231
291 291 291 290 291 291 291 290 289 288 287 286 286 286 286 287 287 288 289 289 288 287 285 284 283 284 285 287 288 289 291 292 294 295 296 296 298 300 303 306 306 307 306 307 307 307 308 309 308 307 306 305 305 304 303 302 301 300 300 300 301 302 302 302 302 301 299 297 294 288 283 280 280 279 277 275 274 271 267 258 247 236 230 228 228
291 290 290 290 290 291 291 289 288 287 287 286 285 286 286 287 287 288 289 288 287 286 284 284 284 285 286 287 289 290 292 293 295 295 295 295 297 300 304 306 307 308 308 307 308 308 309 309 308 307 306 306 306 305 304 303 302 302 302 303 304 304 304 303 302 299 296 294 292 286 283 283 282 281 278 275 273 270 266 259 248 238 230 226 226
290 289 289 289 290 291 290 289 287 287 286 286 286 286 286 287 288 288 288 288 286 285 284 284 284 285 287 288 290 291 293 294 295 295 294 294 296 300 304 306 308 309 309 308 308 309 309 309 309 308 307 307 306 305 304 304 304 304 305 305 306 306 305 304 300 296 293 292 290 287 286 285 285 283 280 276 271 268 266 258 247 238 230 225 223
289 288 288 288 289 289 289 288 287 286 286 286 286 287 287 287 288 288 287 286 285 284 284 284 285 287 288 290 292 292 293 294 294 294 294 294 296 300 304 307 309 310 310 309 309 309 309 309 309 308 307 307 306 305 305 305 306 306 306 306 307 306 305 302 297 292 290 290 290 289 289 288 287 285 281 274 268 265 262 257 246 237 229 223 221
288 287 287 288 288 288 288 287 286 286 286 286 287 287 287 287 288 287 286 284 284 284 284 285 286 289 290 291 292 293 294 295 295 295 294 294 296 300 305 309 311 311 311 309 309 309 309 309 309 308 308 307 306 306 306 306 307 307 307 307 307 307 304 299 292 289 289 289 291 292 291 290 288 286 280 272 266 261 257 254 245 235 228 223 220
287 287 287 286 287 287 288 287 286 286 286 286 286 286 286 287 286 285 284 284 284 284 285 286 288 290 291 291 293 294 294 295 296 296 295 296 299 302 307 310 312 312 311 310 309 309 309 309 308 308 308 307 307 307 307 308 308 309 309 309 308 306 301 294 289 289 289 289 291 292 292 291 289 288 280 270 265 260 255 251 242 233 227 222 219
287 286 285 285 285 286 287 286 286 286 287 287 286 286 286 286 285 284 284 284 284 285 286 287 289 290 292 293 294 294 295 297 297 297 297 299 301 304 308 312 313 313 312 310 309 308 309 308 308 308 308 308 308 308 309 310 310 311 311 309 307 304 297 290 288 289 290 290 291 292 292 292 291 289 280 269 263 259 254 247 237 229 225 222 219
286 285 284 284 285 285 286 285 285 286 287 286 286 285 285 284 283 283 283 283 284 286 287 288 290 292 294 295 295 295 297 298 299 299 300 301 303 306 310 313 313 314 313 311 309 308 308 308 308 309 310 310 310 310 310 312 312 312 311 308 305 301 293 287 288 290 291 292 292 292 291 292 292 289 280 269 262 256 249 240 230 223 222 221 218
284 283 283 284 284 285 285 285 286 286 287 286 286 285 285 284 283 282 282 283 285 286 288 290 292 295 296 296 296 297 299 300 300 301 302 304 306 309 311 313 314 314 314 311 309 308 308 308 309 310 311 312 312 312 312 314 314 314 311 306 302 298 289 285 288 291 293 295 293 292 290 291 292 289 282 272 261 252 244 236 226 220 219 220 217
282 282 282 283 284 285 286 286 287 287 286 286 286 286 285 283 282 282 283 284 285 288 290 293 296 297 297 297 297 298 300 300 301 303 304 306 309 310 312 314 315 315 314 312 310 309 309 310 310 312 314 314 313 313 314 316 316 314 309 302 298 294 287 285 287 291 294 295 293 291 289 289 290 289 283 273 260 249 240 232 223 218 218 218 216
281 282 283 284 285 285 286 286 287 286 286 287 287 286 285 283 282 282 283 285 288 291 294 296 298 298 298 297 298 299 300 301 303 304 307 309 311 312 315 316 316 315 314 313 311 310 310 311 312 314 315 315 315 315 315 317 316 312 305 298 294 291 287 285 287 289 291 292 291 288 285 283 284 285 281 271 257 246 237 230 223 219 218 217 215
283 284 284 285 285 285 286 286 286 286 287 287 287 286 285 283 282 283 285 288 291 294 296 297 298 298 298 298 298 299 300 302 304 306 309 310 312 315 316 317 316 315 314 313 312 312 312 313 314 316 316 316 316 316 316 318 316 310 302 296 291 288 285 284 285 287 288 289 288 284 280 277 276 278 276 267 254 246 239 232 227 224 222 219 216
285 285 284 284 285 285 286 287 287 288 287 286 286 284 283 282 283 284 287 290 293 295 297 298 298 298 298 297 298 299 301 303 306 308 310 312 314 316 317 317 316 315 314 313 313 313 314 314 315 316 317 317 317 317 317 318 315 307 299 294 290 287 285 283 284 285 286 287 287 283 278 273 269 269 271 264 252 245 242 236 232 229 227 225 221
284 284 284 285 286 287 288 289 289 288 286 285 283 282 281 281 283 286 290 294 296 297 298 297 297 297 296 296 298 300 302 304 307 309 311 313 315 317 317 316 315 315 314 314 314 314 315 315 316 317 318 319 319 318 318 317 312 303 297 294 290 288 286 285 284 284 285 286 285 282 277 271 264 261 265 263 251 243 241 239 235 233 231 230 228
284 284 286 288 289 289 290 290 288 287 285 283 281 280 280 282 285 288 293 296 297 297 297 296 296 295 295 296 298 301 303 305 308 310 312 314 316 317 317 316 315 315 315 314 314 315 315 315 316 317 319 320 320 319 317 315 309 301 296 294 291 288 287 286 285 285 284 283 282 279 275 270 261 254 257 260 251 241 237 236 235 234 231 229 227
285 285 286 287 288 288 288 288 287 286 284 282 280 280 282 285 287 290 294 296 296 296 295 294 294 294 295 297 299 301 303 306 309 311 312 314 316 317 317 316 316 316 315 315 315 315 315 315 316 318 320 321 321 319 317 313 306 300 296 293 291 288 287 286 285 285 283 279 276 274 271 268 259 248 249 254 250 241 235 231 231 232 230 227 225
286 285 286 286 286 286 286 286 285 284 282 281 282 283 286 288 288 290 294 296 295 293 292 293 293 294 295 297 299 302 304 307 309 311 312 314 316 317 316 316 316 316 315 315 315 315 315 316 318 320 322 323 322 319 316 311 305 301 297 293 291 289 288 287 285 282 279 276 274 271 267 264 255 243 241 246 246 241 234 229 227 229 228 225 223
287 286 284 283 283 283 282 281 280 280 281 282 284 286 287 287 288 290 293 292 291 290 290 291 292 293 295 297 300 302 305 308 310 311 312 314 316 316 316 316 316 316 316 315 315 315 316 318 319 321 323 323 321 318 314 310 306 302 298 294 293 291 290 288 285 282 279 276 274 271 265 258 249 239 235 239 241 238 233 227 224 225 225 222 220
287 285 283 280 279 279 280 282 283 283 284 286 288 288 289 289 289 289 288 287 287 288 288 289 291 293 296 298 300 303 306 308 309 311 313 314 315 316 316 316 316 316 316 315 314 315 317 319 321 323 324 323 321 317 312 308 306 303 299 297 296 294 292 290 288 285 282 278 273 269 262 252 242 233 230 232 234 234 231 226 223 223 223 221 219
287 286 285 283 281 280 282 286 289 290 291 293 293 293 293 291 290 288 287 286 286 286 287 288 291 294 296 298 301 304 307 308 309 311 313 314 315 316 316 316 315 315 316 315 315 317 319 320 322 323 324 323 320 316 311 308 306 304 301 300 300 298 296 294 291 287 283 278 271 265 258 248 237 229 226 227 229 230 229 225 222 222 221 220 217
287 288 288 288 287 284 283 287 292 295 297 298 297 295 294 292 291 290 288 287 286 286 286 288 291 293 296 299 302 305 307 307 309 311 312 313 315 316 316 315 315 315 316 316 316 318 320 322 324 324 323 321 319 315 310 307 306 305 304 305 305 303 301 298 292 286 280 273 268 262 256 247 235 226 223 224 226 227 226 222 220 219 219 218 213
287 288 288 288 288 286 286 290 295 296 296 296 295 295 294 294 293 292 289 288 287 287 287 288 291 293 296 299 303 305 306 307 308 310 311 312 315 316 315 314 314 315 315 316 317 320 321 323 324 324 321 319 317 314 310 308 307 307 308 308 307 305 303 298 290 283 274 269 265 261 256 246 234 225 222 222 223 224 223 220 218 216 215 215 209
287 288 287 286 287 286 286 292 297 297 295 295 296 296 296 295 294 293 291 290 289 287 287 288 291 294 297 300 303 304 305 306 308 309 310 312 315 316 314 313 314 314 315 316 318 321 323 324 325 323 319 316 314 312 311 310 310 310 310 310 308 305 301 295 289 282 274 269 265 259 253 246 233 223 220 221 221 221 221 220 217 213 211 212 206
287 287 286 286 289 289 290 295 299 300 298 297 298 298 298 297 296 294 292 290 288 287 287 288 291 294 298 301 302 303 304 305 307 308 310 312 315 315 313 312 313 313 314 317 319 322 324 325 325 322 317 311 309 310 311 312 312 311 312 311 308 304 299 294 290 286 278 272 267 258 250 243 232 222 219 220 219 219 219 218 215 211 211 211 204
286 287 286 286 289 292 293 295 298 298 297 296 296 296 296 295 294 292 290 287 286 286 287 288 291 295 298 300 302 302 303 305 307 308 310 311 313 313 312 312 312 313 315 318 320 322 324 325 325 321 315 310 309 309 311 313 313 311 312 311 307 302 299 295 291 287 280 273 267 259 248 240 231 223 220 219 218 217 217 216 212 209 209 210 201
286 287 287 286 288 290 293 295 296 296 296 296 295 294 294 293 292 289 287 285 285 285 287 288 292 296 299 300 301 302 303 305 306 308 308 309 311 312 311 311 312 313 316 318 321 323 325 325 324 320 314 310 310 309 310 312 313 312 313 311 306 302 299 296 291 285 278 273 268 260 249 238 230 224 221 219 217 216 215 214 210 207 208 207 196
285 286 286 286 286 288 292 295 295 296 296 295 294 292 292 291 290 287 285 285 284 285 287 289 293 297 299 300 301 302 303 304 306 307 307 308 310 312 312 312 313 315 317 319 321 324 325 325 324 319 312 308 309 308 309 311 311 312 313 310 306 302 299 294 287 281 276 273 269 262 252 239 230 225 222 219 217 215 214 213 209 207 208 203 191
287 285 284 284 284 286 290 294 295 296 297 295 292 291 290 290 288 286 284 284 283 285 287 291 294 297 298 299 300 301 303 304 306 306 306 308 310 312 312 313 315 317 319 321 323 325 326 325 323 317 308 305 308 309 310 310 310 311 312 309 305 302 298 291 283 278 277 275 270 264 254 240 231 227 222 218 215 213 212 211 208 208 207 199 187
289 286 284 283 284 286 289 293 295 296 295 293 291 290 290 288 286 284 282 282 282 285 288 292 295 297 298 298 300 301 303 305 305 306 306 308 310 312 313 315 316 318 320 323 325 326 326 324 322 315 307 307 312 313 311 310 309 309 309 307 303 300 295 287 280 276 277 277 273 268 257 242 232 228 221 215 212 210 210 210 208 208 206 195 186
288 287 285 285 286 288 290 293 295 294 292 290 290 291 290 287 284 282 280 280 282 286 290 293 295 296 297 298 300 302 304 305 305 306 306 308 310 312 314 316 317 319 322 324 326 327 325 324 321 315 310 314 318 316 312 310 308 306 305 303 300 298 293 285 280 277 277 276 273 270 262 245 235 230 222 213 209 207 208 209 207 207 203 193 188
285 285 286 286 286 287 289 291 291 289 287 287 289 290 288 285 281 278 278 280 283 287 291 293 294 296 297 299 301 303 304 304 304 305 306 309 311 313 314 316 318 321 323 326 327 327 325 323 321 316 313 317 321 318 313 310 307 304 301 297 295 294 291 286 282 281 279 277 272 269 266 252 237 231 223 212 206 206 207 208 207 206 201 193 189
283 283 283 283 283 285 288 289 288 286 285 285 286 287 284 280 276 276 278 282 285 289 291 293 294 296 297 299 301 302 302 302 303 305 308 310 312 313 315 317 320 322 324 326 327 326 324 322 320 316 315 318 321 318 313 310 307 303 297 292 290 291 290 287 285 283 282 280 274 268 267 259 240 230 223 213 206 205 206 207 208 206 199 193 190
282 282 281 280 281 284 287 288 286 285 285 284 283 282 279 275 274 276 280 284 287 289 292 293 294 295 296 297 299 299 300 302 304 307 309 311 312 314 317 319 321 323 325 327 328 325 322 320 318 315 315 317 319 317 312 308 307 302 294 288 286 288 288 287 287 285 282 280 274 266 263 261 245 230 223 214 206 204 206 208 208 205 199 195 191
281 281 281 280 281 284 286 285 283 282 284 283 281 278 274 272 273 277 281 285 287 289 290 291 292 293 295 297 298 300 301 304 306 308 309 311 313 316 319 322 324 325 327 328 327 323 320 318 315 314 314 317 318 316 310 307 306 301 292 286 284 285 285 284 284 283 280 276 271 262 256 255 248 232 222 214 208 205 206 208 208 205 200 196 191
279 279 280 280 280 281 281 279 279 281 282 280 277 274 270 269 273 278 282 284 286 287 288 290 291 293 295 297 299 300 302 304 306 308 310 312 315 317 320 323 325 326 328 327 325 321 317 315 313 312 314 316 317 316 311 306 304 300 292 285 283 282 281 280 280 280 277 273 268 258 248 245 243 233 222 215 210 207 207 208 208 205 201 197 193
276 277 278 278 277 277 275 275 278 280 280 277 274 270 267 269 274 280 282 284 286 287 288 290 292 293 295 297 298 300 302 304 307 309 311 313 315 319 322 325 327 328 328 326 323 319 315 312 311 311 314 316 316 315 312 307 303 299 293 287 284 282 280 280 279 277 274 270 266 256 241 235 235 230 220 214 212 210 208 208 208 206 202 199 196
274 274 275 275 273 272 270 271 275 277 276 274 272 268 266 271 277 281 282 284 286 287 288 290 291 292 294 296 298 301 304 306 309 311 313 316 320 323 326 328 329 329 328 325 321 316 312 310 309 310 313 316 316 314 313 308 302 298 293 288 286 284 282 280 278 273 267 264 261 255 237 226 225 225 217 213 213 212 210 209 208 206 203 200 197
271 271 272 272 271 270 269 269 271 272 272 271 268 265 267 274 278 280 282 284 285 286 288 289 290 292 294 297 299 303 306 309 312 315 318 321 323 326 328 330 330 329 327 324 319 314 310 309 308 309 313 316 315 314 313 308 302 298 294 289 287 284 282 280 274 264 255 251 250 251 240 224 219 218 215 212 211 211 210 209 208 206 203 199 195
267 267 266 266 266 266 267 268 269 269 269 267 264 264 269 274 277 279 281 283 284 286 287 288 289 292 295 298 302 305 308 311 314 318 320 323 326 328 330 331 331 330 327 322 316 311 308 308 308 309 312 315 315 313 312 307 302 298 294 290 288 283 280 279 270 253 241 232 228 228 230 226 221 216 212 212 211 209 209 209 207 205 202 197 193
262 261 262 263 262 264 266 267 267 267 265 262 260 263 269 273 275 278 280 282 283 284 285 287 289 292 296 300 304 308 310 313 316 319 322 325 327 329 331 332 331 329 326 320 314 310 308 308 308 309 311 314 315 313 311 306 301 298 294 290 288 284 278 277 268 248 229 215 207 202 201 213 224 219 212 212 213 209 208 208 207 204 200 195 192
257 257 259 262 263 264 266 266 265 263 260 258 259 264 269 272 274 277 279 281 282 283 284 287 289 293 298 302 306 309 312 314 318 321 324 327 329 331 332 332 331 329 324 318 312 308 308 309 308 309 311 314 313 312 308 301 297 296 293 290 288 284 278 274 266 248 225 205 198 198 197 204 217 218 212 211 212 210 208 207 205 203 199 195 192
255 257 261 263 263 264 264 263 261 259 257 256 259 264 268 271 274 277 278 280 281 282 284 287 291 296 301 305 308 311 314 317 320 323 326 329 331 333 333 333 331 327 322 317 312 309 310 311 310 309 311 314 315 313 308 298 291 290 290 289 287 283 277 272 265 249 228 207 197 199 205 207 210 211 208 208 210 210 209 207 205 202 199 194 192
255 259 262 264 263 262 260 258 257 256 254 255 258 263 267 271 274 276 277 278 280 282 285 289 294 299 304 307 311 314 316 320 323 326 329 331 333 334 333 332 329 325 321 316 313 311 312 312 311 310 312 316 319 319 315 305 294 288 286 285 284 281 278 274 266 251 234 214 200 198 210 217 214 209 206 205 207 209 209 207 204 202 199 195 194
254 256 257 258 256 255 254 253 253 253 252 254 258 263 266 270 273 274 276 277 280 283 288 293 298 302 306 310 313 316 319 323 326 329 331 333 334 334 333 331 327 323 319 315 312 312 312 312 311 310 311 315 319 321 319 312 304 295 287 282 279 278 276 275 269 255 236 218 202 196 207 219 217 210 205 203 204 208 209 207 204 203 200 197 195
254 253 251 250 249 249 250 250 250 250 251 255 260 263 266 269 271 273 275 277 281 286 291 296 301 305 308 312 315 318 322 326 329 331 333 334 334 334 332 329 324 321 318 314 311 311 313 312 310 309 309 312 317 321 320 315 308 300 292 283 277 275 275 275 271 258 236 217 202 194 201 209 207 202 201 200 201 207 210 207 205 204 202 199 196
250 247 245 245 246 247 247 246 246 248 252 256 259 262 265 268 270 272 275 279 284 290 295 299 303 307 311 314 318 322 325 328 330 332 333 334 334 333 330 326 323 321 318 314 312 312 314 313 311 309 309 310 314 319 320 318 311 304 296 287 277 273 273 273 271 260 234 213 200 193 195 197 193 192 195 196 197 205 211 208 206 206 204 199 196
243 242 242 243 244 243 243 243 245 249 252 255 258 261 264 267 269 273 278 283 288 294 298 302 306 310 314 317 321 324 327 329 331 332 333 334 334 332 328 324 322 321 318 315 312 312 314 314 312 310 309 309 312 317 320 320 315 307 299 290 277 271 271 270 268 262 235 209 198 192 192 190 183 183 189 192 195 203 210 209 207 206 203 198 195
238 239 239 239 239 239 240 243 246 248 251 254 258 261 264 267 271 276 282 287 293 297 301 305 309 313 317 320 323 326 328 329 331 332 333 333 332 330 326 323 322 321 318 315 311 311 313 314 313 312 311 309 310 314 319 322 318 309 301 293 281 272 270 266 264 262 236 207 199 195 191 187 180 178 183 189 193 200 208 209 207 206 204 199 197
235 235 235 234 235 237 240 242 244 247 251 254 258 261 265 270 275 281 286 291 296 299 303 308 312 316 319 322 324 326 327 329 330 331 332 332 330 327 324 322 322 321 318 314 310 309 312 314 315 316 314 312 311 313 318 323 322 312 301 294 283 273 268 261 258 260 239 207 200 198 194 188 181 176 178 184 189 197 206 209 208 206 204 201 200
230 230 231 233 234 236 237 238 242 248 252 255 259 264 269 275 280 285 290 294 298 302 306 311 314 318 320 323 324 325 327 329 330 331 331 330 328 325 323 321 321 320 318 314 310 309 311 313 315 318 318 315 313 312 314 320 323 316 303 294 284 274 267 256 250 254 244 212 201 200 197 190 183 176 174 178 184 192 203 208 207 205 204 202 201
Height
5630 5628 5626 5624 5622 5620 5617 5614 5612 5610 5608 5605 5603 5601 5599 5597 5595 5593 5591 5589 5588 5585 5583 5581 5578 5576 5574 5572 5569 5566 5563 5560 5557 5554 5551 5548 5544 5541 5536 5532 5527 5521 5515 5509 5502 5495 5490 5486 5481 5475 5467 5462 5458 5451 5445 5439 5430 5425 5419 5413 5407 5400 5390 5376 5357 5347 5353 5365 5368 5357 5347 5341 5335 5335 5337 5334 5335 5336 5334 5333 5336 5341 5348 5360 5373
5622 5620 5619 5616 5614 5612 5610 5607 5604 5602 5600 5597 5595 5593 5591 5589 5587 5585 5583 5581 5579 5577 5574 5572 5570 5567 5565 5563 5560 5557 5553 5551 5548 5545 5542 5538 5535 5531 5526 5522 5516 5510 5504 5497 5491 5485 5479 5475 5470 5464 5457 5451 5446 5439 5432 5426 5417 5410 5405 5398 5391 5386 5377 5361 5343 5330 5329 5341 5348 5340 5330 5325 5322 5322 5322 5319 5319 5320 5318 5317 5320 5324 5331 5342 5355
5614 5612 5611 5608 5606 5604 5602 5599 5596 5594 5591 5589 5587 5585 5583 5581 5579 5577 5574 5572 5570 5568 5566 5564 5561 5559 5556 5554 5551 5547 5544 5542 5538 5535 5532 5528 5525 5521 5516 5511 5505 5499 5493 5486 5481 5475 5469 5464 5459 5452 5445 5439 5433 5426 5418 5412 5404 5395 5390 5383 5375 5369 5361 5347 5329 5316 5314 5323 5332 5327 5316 5311 5310 5308 5308 5306 5304 5303 5303 5304 5307 5310 5315 5326 5338
5606 5604 5602 5599 5598 5596 5593 5591 5588 5585 5583 5580 5578 5577 5575 5573 5571 5568 5566 5563 5561 5559 5557 5555 5552 5550 5548 5544 5541 5538 5535 5532 5529 5525 5522 5518 5514 5511 5506 5501 5495 5488 5482 5475 5470 5464 5458 5453 5446 5439 5433 5427 5421 5414 5406 5399 5391 5382 5375 5369 5361 5352 5343 5330 5317 5306 5303 5309 5317 5314 5304 5299 5298 5296 5294 5293 5290 5288 5289 5291 5293 5296 5302 5313 5324
5597 5595 5593 5590 5589 5587 5584 5582 5579 5576 5574 5572 5570 5568 5566 5564 5562 5560 5557 5554 5552 5550 5548 5545 5543 5540 5538 5535 5532 5529 5526 5522 5519 5515 5512 5508 5505 5501 5496 5491 5485 5478 5471 5465 5459 5453 5448 5442 5435 5427 5421 5415 5408 5401 5393 5387 5380 5372 5363 5355 5347 5337 5326 5315 5305 5298 5295 5298 5304 5302 5294 5288 5287 5286 5283 5280 5277 5275 5276 5279 5282 5284 5291 5301 5311
5588 5586 5584 5582 5579 5577 5575 5573 5570 5567 5565 5563 5562 5560 5557 5556 5553 5550 5548 5545 5543 5541 5538 5536 5534 5531 5528 5526 5523 5519 5516 5512 5509 5505 5502 5498 5495 5491 5487 5482 5475 5468 5462 5455 5449 5443 5437 5431 5424 5416 5408 5402 5395 5388 5381 5375 5369 5361 5351 5342 5332 5321 5311 5303 5296 5291 5289 5289 5291 5290 5285 5279 5277 5277 5274 5267 5263 5264 5265 5268 5272 5276 5282 5291 5300
5579 5577 5575 5573 5570 5568 5566 5564 5561 5559 5557 5555 5553 5550 5548 5546 5544 5541 5538 5536 5533 5531 5529 5527 5524 5522 5519 5516 5513 5510 5506 5502 5499 5495 5491 5488 5485 5482 5477 5472 5465 5459 5452 5445 5439 5433 5427 5421 5414 5406 5398 5390 5383 5376 5369 5362 5356 5349 5337 5325 5315 5307 5299 5293 5288 5284 5282 5282 5281 5279 5277 5272 5268 5268 5265 5257 5253 5256 5258 5261 5266 5271 5276 5283 5292
5570 5568 5565 5563 5561 5559 5557 5554 5552 5550 5548 5546 5543 5541 5539 5537 5534 5532 5529 5527 5524 5522 5520 5518 5515 5513 5510 5506 5503 5499 5496 5492 5489 5486 5482 5479 5476 5472 5467 5461 5455 5449 5443 5436 5429 5423 5417 5411 5403 5395 5387 5379 5371 5363 5357 5350 5342 5334 5324 5309 5299 5294 5288 5284 5281 5278 5275 5274 5273 5270 5267 5266 5262 5260 5257 5251 5247 5250 5253 5255 5260 5265 5271 5277 5285
5561 5558 5555 5553 5551 5549 5547 5545 5543 5541 5538 5537 5534 5532 5530 5527 5525 5523 5520 5518 5515 5513 5511 5509 5507 5504 5500 5497 5493 5489 5486 5483 5479 5476 5472 5469 5466 5462 5458 5451 5445 5439 5433 5426 5420 5413 5407 5400 5393 5385 5376 5367 5358 5350 5344 5338 5327 5317 5307 5296 5287 5283 5280 5276 5274 5272 5269 5267 5266 5263 5260 5259 5257 5253 5251 5247 5243 5245 5247 5248 5252 5258 5264 5270 5278
5551 5548 5545 5544 5542 5540 5538 5536 5534 5531 5529 5527 5525 5523 5521 5519 5516 5514 5511 5509 5507 5504 5503 5500 5498 5495 5491 5487 5483 5480 5476 5473 5470 5466 5462 5459 5456 5452 5448 5442 5435 5428 5422 5416 5410 5403 5396 5389 5381 5375 5366 5356 5347 5337 5330 5323 5313 5301 5290 5282 5277 5274 5272 5270 5268 5266 5263 5261 5260 5257 5254 5254 5252 5248 5246 5243 5240 5240 5242 5243 5248 5254 5258 5263 5271
5541 5538 5536 5534 5533 5531 5529 5526 5524 5523 5520 5518 5516 5514 5512 5510 5507 5505 5503 5501 5499 5496 5494 5492 5489 5486 5482 5478 5474 5470 5466 5464 5460 5456 5452 5448 5444 5441 5437 5431 5424 5417 5410 5404 5398 5392 5385 5378 5369 5362 5355 5346 5336 5326 5317 5309 5300 5289 5278 5271 5267 5265 5264 5263 5262 5259 5257 5255 5254 5252 5249 5249 5248 5244 5242 5240 5238 5237 5238 5240 5244 5249 5251 5255 5263
5531 5529 5527 5526 5524 5522 5520 5518 5516 5514 5511 5509 5507 5505 5503 5501 5498 5496 5495 5493 5490 5488 5485 5483 5480 5477 5474 5470 5465 5461 5457 5454 5451 5446 5442 5437 5433 5430 5426 5420 5413 5406 5399 5392 5386 5379 5373 5367 5359 5351 5343 5334 5324 5314 5306 5298 5289 5279 5270 5265 5261 5258 5256 5256 5255 5253 5250 5248 5248 5247 5245 5244 5244 5242 5239 5237 5236 5235 5236 5238 5240 5243 5245 5249 5256
5522 5521 5519 5517 5515 5513 5511 5509 5507 5504 5502 5500 5498 5496 5494 5492 5490 5488 5486 5484 5482 5479 5476 5474 5471 5468 5465 5461 5456 5452 5448 5445 5442 5436 5431 5428 5423 5419 5415 5408 5401 5395 5387 5380 5374 5367 5360 5354 5349 5343 5334 5324 5313 5302 5293 5286 5278 5270 5263 5258 5255 5252 5249 5247 5246 5245 5243 5242 5242 5242 5240 5239 5240 5239 5236 5233 5234 5234 5235 5237 5239 5241 5244 5247 5254
5514 5512 5510 5508 5506 5504 5502 5500 5498 5496 5493 5492 5490 5488 5485 5483 5481 5480 5478 5476 5473 5470 5467 5464 5461 5458 5455 5452 5448 5443 5439 5435 5432 5427 5422 5418 5414 5409 5403 5397 5391 5384 5377 5369 5362 5355 5349 5342 5337 5333 5326 5316 5303 5290 5279 5273 5267 5261 5255 5252 5248 5245 5243 5240 5238 5236 5235 5234 5234 5235 5234 5232 5234 5235 5232 5229 5232 5234 5234 5235 5237 5240 5243 5248 5255
5506 5504 5502 5500 5498 5496 5493 5491 5489 5487 5485 5483 5481 5479 5477 5475 5473 5471 5469 5467 5464 5461 5458 5455 5452 5449 5446 5443 5440 5435 5430 5426 5422 5417 5413 5408 5404 5399 5393 5387 5381 5374 5367 5359 5351 5344 5337 5331 5326 5322 5316 5307 5294 5279 5267 5259 5256 5252 5248 5245 5242 5239 5236 5233 5230 5229 5227 5226 5226 5226 5226 5225 5227 5229 5229 5227 5229 5232 5232 5233 5235 5238 5242 5248 5254
5499 5497 5495 5493 5490 5488 5485 5483 5481 5479 5476 5474 5472 5470 5468 5466 5465 5462 5460 5457 5454 5451 5449 5445 5442 5440 5437 5435 5432 5426 5421 5416 5412 5408 5403 5399 5395 5390 5384 5377 5371 5365 5358 5350 5343 5335 5327 5320 5315 5311 5306 5297 5284 5271 5258 5249 5246 5244 5240 5237 5235 5232 5230 5226 5222 5221 5220 5218 5218 5217 5216 5217 5219 5222 5224 5223 5224 5228 5229 5229 5232 5237 5241 5245 5249
5491 5488 5486 5484 5482 5480 5477 5475 5473 5470 5468 5466 5464 5462 5460 5458 5456 5453 5451 5448 5445 5442 5439 5436 5433 5431 5428 5425 5423 5418 5413 5407 5403 5398 5393 5389 5385 5380 5374 5368 5362 5356 5350 5342 5334 5328 5321 5312 5304 5299 5295 5287 5274 5261 5249 5241 5237 5235 5232 5230 5227 5224 5223 5219 5215 5213 5211 5209 5209 5209 5208 5209 5210 5214 5218 5219 5220 5222 5224 5226 5232 5235 5237 5241 5246
5482 5479 5477 5475 5473 5471 5469 5467 5465 5463 5460 5459 5457 5454 5452 5449 5446 5444 5441 5439 5436 5433 5430 5427 5424 5422 5419 5416 5413 5410 5405 5399 5394 5389 5384 5379 5375 5370 5364 5359 5354 5347 5341 5334 5325 5318 5312 5304 5295 5286 5281 5273 5262 5250 5240 5233 5229 5227 5224 5222 5220 5217 5214 5210 5206 5205 5201 5198 5199 5199 5200 5200 5202 5205 5210 5213 5214 5216 5219 5225 5231 5231 5233 5239 5245
5472 5470 5468 5467 5465 5463 5461 5459 5457 5455 5452 5451 5448 5445 5443 5441 5438 5435 5432 5429 5427 5424 5421 5418 5415 5412 5410 5407 5404 5401 5397 5391 5385 5380 5375 5370 5365 5360 5354 5349 5345 5340 5333 5325 5318 5311 5302 5294 5286 5277 5269 5260 5250 5240 5232 5225 5221 5219 5215 5213 5212 5209 5204 5199 5196 5194 5191 5189 5189 5189 5190 5191 5193 5197 5202 5206 5208 5211 5215 5222 5226 5227 5231 5238 5242
5463 5462 5460 5458 5456 5454 5453 5450 5448 5446 5443 5441 5439 5437 5435 5432 5429 5426 5423 5420 5417 5415 5413 5410 5406 5403 5401 5398 5395 5392 5388 5383 5377 5372 5367 5361 5356 5350 5344 5338 5334 5331 5326 5317 5309 5303 5296 5286 5277 5268 5260 5251 5241 5233 5226 5219 5214 5211 5208 5204 5202 5199 5193 5188 5185 5182 5179 5179 5179 5178 5179 5182 5185 5190 5195 5199 5203 5207 5211 5218 5222 5224 5229 5235 5240
5455 5453 5451 5450 5448 5446 5444 5441 5439 5437 5435 5433 5431 5428 5426 5424 5421 5418 5414 5411 5409 5407 5404 5401 5398 5394 5392 5389 5386 5383 5379 5374 5369 5363 5358 5353 5347 5341 5334 5328 5323 5320 5316 5309 5300 5293 5286 5278 5269 5259 5250 5241 5233 5226 5220 5214 5207 5203 5200 5196 5192 5188 5182 5178 5175 5172 5169 5169 5170 5169 5171 5174 5178 5183 5188 5193 5198 5202 5206 5213 5218 5221 5227 5233 5238
5447 5445 5443 5442 5440 5437 5435 5433 5431 5429 5427 5425 5423 5420 5418 5415 5412 5409 5406 5403 5400 5398 5395 5393 5390 5386 5383 5380 5377 5374 5370 5365 5360 5355 5350 5345 5339 5332 5325 5319 5313 5309 5305 5300 5293 5285 5276 5268 5260 5250 5240 5232 5225 5219 5214 5208 5202 5197 5192 5188 5183 5177 5172 5168 5166 5164 5163 5163 5163 5164 5166 5168 5171 5177 5182 5187 5193 5196 5201 5208 5213 5218 5224 5230 5235
5439 5437 5435 5433 5431 5429 5427 5425 5423 5421 5419 5417 5415 5412 5410 5407 5403 5400 5397 5394 5392 5389 5387 5384 5382 5379 5376 5372 5369 5365 5361 5356 5352 5347 5342 5338 5332 5325 5318 5311 5305 5300 5295 5289 5284 5277 5268 5259 5250 5240 5231 5223 5217 5213 5208 5202 5197 5192 5187 5181 5175 5170 5165 5162 5160 5159 5159 5159 5158 5160 5161 5163 5166 5171 5176 5181 5186 5191 5196 5201 5207 5213 5219 5225 5230
5430 5429 5427 5425 5423 5421 5419 5417 5415 5413 5411 5409 5407 5404 5401 5398 5395 5391 5388 5386 5383 5381 5379 5377 5375 5372 5368 5365 5361 5357 5353 5348 5344 5339 5334 5330 5325 5319 5312 5305 5299 5293 5288 5281 5275 5267 5260 5251 5242 5232 5222 5214 5209 5206 5202 5196 5191 5186 5181 5175 5170 5165 5161 5158 5157 5156 5155 5155 5155 5156 5158 5159 5161 5166 5171 5175 5180 5185 5191 5196 5201 5207 5213 5217 5222
5422 5420 5419 5417 5415 5413 5411 5409 5407 5405 5403 5400 5398 5395 5392 5389 5386 5383 5381 5378 5376 5373 5371 5369 5367 5364 5361 5357 5353 5349 5345 5340 5336 5331 5326 5322 5319 5314 5307 5300 5294 5288 5281 5275 5268 5260 5252 5243 5234 5224 5215 5208 5203 5199 5195 5190 5185 5180 5175 5170 5165 5161 5158 5155 5154 5153 5152 5151 5151 5152 5154 5155 5157 5160 5165 5168 5173 5179 5185 5191 5196 5202 5208 5212 5217
5413 5412 5410 5408 5406 5404 5402 5400 5398 5396 5394 5392 5390 5387 5384 5382 5379 5376 5373 5371 5368 5366 5364 5361 5359 5356 5353 5350 5346 5341 5337 5332 5328 5323 5318 5315 5313 5308 5302 5296 5290 5283 5276 5269 5262 5254 5245 5236 5227 5218 5209 5202 5196 5192 5189 5185 5180 5175 5170 5165 5161 5158 5155 5152 5151 5149 5148 5148 5147 5147 5149 5151 5153 5156 5159 5163 5169 5175 5181 5186 5191 5197 5203 5209 5215
5404 5403 5401 5399 5397 5395 5393 5392 5389 5387 5385 5383 5382 5379 5377 5374 5371 5368 5365 5363 5361 5358 5356 5354 5351 5348 5345 5342 5338 5334 5329 5324 5320 5315 5311 5308 5306 5302 5296 5291 5285 5278 5271 5264 5256 5249 5240 5231 5221 5211 5204 5198 5191 5186 5182 5179 5174 5170 5165 5161 5157 5154 5152 5150 5148 5147 5146 5145 5144 5144 5145 5146 5149 5152 5156 5161 5167 5173 5179 5183 5188 5194 5199 5205 5212
5395 5394 5392 5390 5388 5386 5384 5382 5380 5378 5376 5375 5373 5370 5368 5365 5362 5360 5357 5355 5353 5350 5348 5346 5344 5340 5337 5334 5330 5326 5322 5317 5312 5307 5303 5300 5298 5294 5289 5283 5278 5272 5264 5257 5250 5242 5233 5224 5215 5206 5200 5195 5189 5182 5177 5173 5169 5165 5161 5158 5154 5152 5149 5147 5146 5144 5143 5143 5141 5141 5141 5142 5145 5149 5153 5158 5165 5172 5177 5182 5186 5192 5196 5201 5209
5386 5384 5383 5381 5379 5377 5376 5373 5371 5370 5368 5366 5364 5361 5359 5356 5354 5351 5349 5347 5345 5343 5340 5338 5336 5333 5330 5326 5322 5319 5314 5309 5305 5300 5295 5291 5288 5285 5280 5275 5269 5263 5256 5249 5242 5235 5226 5217 5209 5201 5196 5191 5185 5179 5173 5169 5164 5160 5157 5154 5152 5149 5147 5145 5144 5142 5141 5140 5139 5139 5138 5139 5142 5145 5148 5154 5161 5168 5174 5179 5184 5189 5194 5200 5208
5377 5375 5374 5372 5370 5368 5367 5365 5363 5361 5359 5358 5355 5353 5350 5348 5346 5343 5341 5339 5337 5335 5332 5330 5328 5326 5323 5319 5315 5311 5307 5302 5297 5292 5287 5283 5279 5276 5271 5265 5260 5254 5248 5241 5234 5226 5218 5210 5202 5195 5190 5185 5180 5174 5169 5166 5162 5157 5154 5151 5149 5147 5145 5143 5142 5141 5139 5138 5137 5137 5136 5137 5139 5141 5144 5149 5156 5163 5170 5175 5180 5186 5193 5201 5208
5368 5367 5366 5364 5361 5359 5358 5356 5355 5353 5352 5350 5347 5345 5342 5340 5338 5335 5333 5331 5329 5327 5324 5323 5320 5318 5315 5312 5308 5303 5299 5294 5290 5285 5280 5276 5272 5267 5262 5257 5251 5245 5238 5233 5226 5218 5210 5202 5195 5189 5184 5179 5174 5169 5165 5162 5159 5155 5152 5149 5146 5144 5142 5141 5140 5139 5137 5136 5135 5135 5135 5135 5137 5139 5142 5146 5152 5159 5165 5171 5177 5184 5192 5200 5207
5359 5358 5358 5356 5353 5351 5349 5348 5347 5346 5344 5342 5339 5337 5334 5331 5329 5327 5325 5323 5321 5319 5317 5315 5312 5310 5307 5304 5301 5297 5292 5288 5284 5279 5274 5269 5264 5260 5254 5250 5244 5237 5231 5224 5218 5210 5202 5194 5188 5183 5178 5173 5169 5164 5161 5158 5155 5152 5150 5147 5144 5142 5140 5139 5138 5137 5136 5135 5133 5132 5133 5133 5135 5137 5140 5143 5149 5156 5162 5168 5174 5181 5189 5196 5204
5348 5348 5348 5347 5345 5343 5341 5340 5339 5338 5336 5334 5331 5328 5325 5322 5320 5318 5317 5315 5314 5312 5310 5308 5305 5302 5299 5296 5293 5290 5286 5282 5278 5273 5268 5263 5258 5254 5248 5243 5237 5231 5225 5219 5212 5203 5195 5187 5181 5177 5172 5168 5164 5160 5156 5154 5151 5149 5147 5145 5142 5140 5138 5136 5136 5135 5134 5133 5132 5131 5131 5131 5133 5135 5138 5141 5147 5153 5159 5165 5171 5178 5185 5193 5201
5337 5337 5337 5337 5335 5333 5332 5330 5329 5328 5327 5324 5321 5319 5316 5314 5312 5310 5309 5307 5306 5304 5302 5300 5297 5295 5292 5289 5286 5283 5280 5276 5271 5266 5262 5257 5252 5248 5243 5236 5229 5222 5216 5210 5203 5196 5189 5182 5177 5172 5168 5164 5160 5156 5153 5150 5148 5146 5144 5142 5140 5138 5136 5134 5133 5132 5132 5131 5130 5130 5129 5130 5131 5133 5136 5140 5145 5151 5157 5163 5169 5176 5183 5191 5199
5326 5325 5325 5326 5325 5323 5322 5320 5319 5318 5317 5314 5312 5309 5307 5305 5304 5302 5301 5300 5298 5296 5294 5292 5290 5288 5285 5282 5279 5275 5272 5268 5264 5259 5255 5251 5246 5241 5236 5230 5223 5215 5208 5202 5195 5188 5182 5177 5173 5168 5164 5160 5156 5153 5150 5147 5145 5142 5141 5139 5137 5135 5134 5132 5131 5130 5129 5129 5128 5128 5128 5129 5129 5131 5134 5139 5144 5149 5155 5161 5167 5174 5181 5189 5197
5314 5314 5314 5315 5315 5314 5312 5311 5309 5308 5307 5304 5302 5301 5299 5297 5296 5295 5295 5293 5292 5290 5289 5286 5284 5281 5278 5275 5272 5268 5265 5261 5257 5253 5249 5244 5239 5234 5229 5224 5217 5210 5203 5196 5189 5182 5176 5172 5168 5164 5160 5156 5153 5149 5146 5144 5142 5140 5138 5136 5135 5133 5132 5130 5129 5128 5127 5126 5126 5126 5127 5128 5129 5130 5132 5137 5142 5147 5153 5159 5164 5171 5178 5186 5195
5301 5302 5303 5304 5304 5304 5303 5301 5300 5298 5297 5295 5293 5292 5291 5290 5289 5288 5287 5286 5285 5284 5282 5280 5277 5275 5272 5269 5266 5263 5260 5256 5252 5247 5243 5237 5232 5226 5221 5216 5210 5203 5196 5189 5183 5177 5172 5167 5164 5161 5157 5153 5149 5146 5143 5141 5139 5137 5135 5133 5132 5131 5129 5128 5126 5125 5124 5124 5123 5124 5125 5127 5128 5129 5132 5136 5141 5146 5151 5156 5161 5168 5175 5183 5191
5288 5290 5291 5292 5292 5293 5292 5291 5290 5289 5287 5286 5285 5285 5284 5283 5281 5281 5280 5279 5278 5276 5275 5273 5271 5269 5266 5264 5260 5257 5254 5250 5246 5241 5236 5230 5225 5219 5213 5208 5203 5196 5189 5183 5177 5172 5168 5163 5160 5157 5154 5150 5146 5143 5140 5138 5136 5134 5133 5131 5129 5128 5127 5126 5124 5123 5122 5122 5121 5122 5123 5125 5127 5129 5131 5134 5138 5144 5149 5154 5159 5166 5173 5180 5188
5275 5278 5279 5280 5281 5281 5281 5280 5280 5279 5278 5277 5277 5277 5277 5275 5274 5274 5273 5272 5271 5270 5268 5267 5265 5263 5260 5258 5255 5251 5248 5243 5239 5234 5229 5224 5218 5213 5208 5202 5197 5190 5183 5177 5171 5167 5163 5160 5157 5154 5150 5147 5144 5140 5137 5135 5133 5131 5130 5129 5127 5126 5125 5124 5123 5122 5121 5120 5120 5121 5122 5124 5126 5129 5131 5134 5137 5141 5147 5152 5158 5164 5171 5180 5190
5264 5266 5268 5269 5270 5270 5270 5270 5270 5269 5269 5269 5270 5270 5269 5268 5267 5267 5266 5266 5265 5264 5263 5261 5259 5257 5255 5252 5249 5245 5242 5237 5232 5228 5223 5218 5212 5206 5201 5196 5191 5185 5178 5171 5166 5162 5159 5156 5153 5150 5147 5144 5141 5137 5134 5132 5130 5129 5127 5126 5125 5124 5123 5122 5121 5121 5120 5120 5120 5121 5122 5123 5125 5128 5130 5133 5136 5140 5145 5151 5157 5164 5172 5181 5191
5254 5256 5258 5259 5260 5261 5261 5261 5261 5261 5261 5261 5262 5262 5261 5261 5261 5261 5260 5260 5259 5258 5257 5256 5254 5252 5250 5246 5243 5240 5236 5232 5227 5222 5217 5211 5205 5199 5194 5189 5184 5179 5172 5166 5161 5158 5155 5152 5149 5147 5144 5141 5138 5135 5132 5130 5128 5126 5125 5124 5123 5122 5121 5120 5120 5120 5119 5119 5120 5121 5122 5123 5124 5126 5129 5132 5135 5139 5144 5150 5156 5163 5172 5181 5190
5245 5247 5248 5249 5250 5252 5252 5252 5253 5253 5254 5254 5255 5255 5255 5255 5255 5254 5254 5254 5253 5253 5252 5251 5249 5247 5244 5241 5238 5235 5230 5226 5222 5217 5211 5205 5199 5193 5187 5182 5177 5172 5166 5161 5158 5154 5151 5148 5145 5143 5141 5138 5135 5132 5130 5128 5126 5124 5122 5121 5121 5120 5119 5119 5118 5118 5119 5118 5119 5120 5122 5122 5123 5125 5127 5130 5134 5138 5143 5148 5154 5162 5170 5180 5189
5236 5238 5239 5241 5242 5243 5244 5245 5246 5246 5247 5248 5249 5248 5248 5249 5249 5248 5249 5248 5248 5247 5247 5245 5243 5241 5238 5235 5232 5229 5225 5220 5216 5211 5205 5199 5192 5186 5180 5175 5170 5165 5160 5156 5153 5150 5148 5145 5142 5139 5137 5134 5131 5129 5127 5125 5124 5122 5121 5119 5118 5118 5117 5117 5117 5117 5118 5117 5118 5120 5121 5122 5123 5124 5126 5129 5133 5137 5141 5147 5153 5160 5169 5178 5187
5228 5230 5232 5233 5235 5236 5237 5238 5239 5240 5241 5242 5242 5242 5243 5243 5243 5243 5244 5243 5243 5242 5241 5239 5237 5235 5232 5229 5226 5222 5218 5214 5210 5204 5199 5193 5186 5180 5174 5169 5163 5159 5155 5152 5149 5147 5144 5142 5139 5136 5134 5131 5128 5126 5124 5122 5121 5120 5119 5117 5116 5116 5115 5115 5115 5116 5116 5117 5117 5119 5121 5122 5123 5124 5125 5128 5131 5136 5141 5146 5152 5159 5167 5176 5185
5220 5222 5224 5226 5227 5228 5230 5232 5233 5234 5235 5236 5236 5236 5237 5237 5238 5238 5238 5238 5238 5237 5235 5234 5232 5229 5226 5223 5220 5216 5212 5208 5203 5198 5193 5187 5181 5175 5169 5163 5158 5154 5151 5148 5146 5144 5141 5139 5136 5134 5132 5129 5126 5124 5121 5119 5118 5117 5116 5115 5114 5114 5114 5114 5113 5114 5115 5115 5117 5118 5120 5123 5124 5125 5126 5128 5131 5135 5140 5145 5151 5159 5167 5176 5185
5212 5214 5216 5218 5220 5222 5224 5226 5228 5229 5229 5230 5230 5231 5232 5232 5233 5234 5234 5233 5233 5231 5230 5228 5226 5223 5220 5217 5213 5210 5206 5201 5196 5191 5187 5182 5177 5171 5165 5159 5154 5150 5148 5146 5143 5141 5139 5136 5134 5132 5130 5127 5125 5123 5120 5118 5116 5115 5114 5113 5112 5112 5112 5112 5112 5112 5113 5114 5116 5118 5120 5122 5124 5125 5126 5129 5132 5136 5140 5145 5151 5158 5167 5176 5185
5206 5208 5210 5212 5215 5217 5219 5221 5222 5223 5224 5224 5225 5226 5227 5228 5229 5229 5229 5228 5227 5226 5224 5222 5219 5216 5214 5210 5207 5203 5199 5194 5189 5186 5181 5177 5172 5166 5160 5155 5150 5147 5144 5142 5140 5138 5136 5133 5131 5129 5127 5125 5123 5121 5119 5116 5115 5113 5112 5111 5110 5110 5110 5110 5110 5111 5111 5113 5115 5117 5120 5122 5124 5125 5127 5129 5133 5136 5140 5145 5151 5158 5166 5175 5185
5200 5203 5206 5208 5211 5212 5214 5215 5217 5218 5219 5220 5220 5221 5222 5223 5224 5224 5224 5223 5222 5220 5218 5216 5213 5210 5207 5204 5200 5196 5192 5187 5184 5180 5176 5171 5167 5162 5156 5152 5148 5144 5141 5139 5137 5136 5134 5131 5129 5127 5125 5123 5121 5119 5117 5115 5113 5111 5111 5110 5109 5108 5109 5109 5109 5109 5110 5112 5114 5116 5119 5121 5122 5124 5126 5129 5133 5136 5140 5145 5151 5158 5165 5174 5183
5197 5199 5202 5204 5206 5207 5209 5211 5212 5213 5214 5215 5216 5217 5218 5219 5219 5219 5219 5217 5216 5214 5212 5210 5207 5204 5201 5197 5193 5190 5186 5182 5178 5174 5170 5166 5162 5157 5152 5148 5145 5141 5139 5136 5134 5133 5131 5129 5127 5125 5122 5121 5119 5117 5115 5113 5111 5110 5109 5108 5107 5107 5107 5107 5107 5108 5109 5110 5113 5115 5117 5120 5122 5123 5125 5128 5132 5136 5140 5145 5151 5158 5165 5173 5181
5193 5196 5198 5200 5202 5204 5205 5206 5207 5208 5210 5211 5212 5213 5214 5214 5214 5214 5213 5212 5210 5208 5206 5203 5200 5197 5194 5191 5187 5184 5180 5177 5173 5169 5165 5161 5156 5152 5148 5145 5141 5139 5136 5134 5132 5130 5129 5127 5125 5123 5120 5118 5117 5115 5113 5112 5110 5109 5107 5107 5106 5106 5106 5106 5106 5107 5107 5109 5112 5114 5116 5119 5121 5122 5124 5128 5132 5136 5140 5145 5150 5157 5164 5172 5179
5190 5192 5195 5197 5198 5200 5201 5202 5203 5204 5206 5207 5208 5209 5209 5209 5209 5209 5207 5206 5204 5202 5199 5197 5194 5191 5188 5185 5182 5178 5175 5171 5168 5164 5160 5156 5151 5148 5144 5141 5138 5136 5133 5131 5129 5128 5126 5124 5123 5121 5119 5117 5115 5113 5112 5110 5109 5107 5106 5105 5104 5104 5104 5104 5105 5105 5106 5108 5110 5113 5115 5118 5120 5121 5124 5127 5131 5136 5140 5144 5150 5156 5163 5170 5177